Regional Weather Roundup
Issued by NWS Goodland, KS

Home | Current Version | Previous Version | Graphics & Text | Print | Product List | Glossary On
Versions: 1 2 3 4 5 6 7 8 9 10 11 12 13 14 15 16 17 18 19 20 21 22 23 24 25 26 27 28 29 30 31 32 33 34 35 36 37 38 39 40 41 42 43 44 45 46 47 48 49 50
290
ASUS43 KGLD 291359
RWRGLD

GOODLAND FORECAST AREA HOURLY WEATHER ROUNDUP
NATIONAL WEATHER SERVICE GOODLAND KS
800 AM MDT SUN MAY 29 2016

...OFFICIAL OBSERVATIONS...

CITY           SKY/WX    TMP DP  RH WIND       PRES   REMARKS
GOODLAND KS    SUNNY     64  51  62 S10       30.14R
HILL CITY KS   SUNNY     69  56  62 SW5       30.12S
IMPERIAL NEB   SUNNY     59  50  72 CALM      30.14R
MCCOOK NEB     SUNNY     61  53  75 NE3       30.13R
AKRON CO       SUNNY     60  44  55 S3        30.17R
BURLINGTON CO  SUNNY     64  49  57 S14       30.16R
LIMON CO       CLOUDY    56  47  71 CALM      30.20S
$$

...UNOFFICIAL OBSERVATIONS...

CITY           SKY/WX    TMP DP  RH WIND       PRES   REMARKS
GOVE KS          N/A     68  32  26 MISG        N/A
LENORA KS        N/A     67  32  27 MISG        N/A
SHARON SPRINGS   N/A     62  55  79 S7          N/A
TRIBUNE KS     CLOUDY    64  54  68 S8        30.17
KIT CARSON CO    N/A     58  50  74 CALM        N/A
YUMA CO          N/A     59  47  64 CALM        N/A
$$




USA.gov is the U.S. government's official web portal to all federal, state and local government web resources and services.